Theta_e
334 329 323 320 307 306 299 301 307 307 308 312 316 313 313 317 314 312 331 334 338 339 343 346 348 349 348 346 346 345 344 341 341 340 340 340 342 342 344 343 343 341 339 338 339 337 338 336 335
331 329 321 317 303 299 298 304 306 310 313 316 315 314 313 315 325 327 328 335 337 340 341 344 346 348 347 346 345 344 343 341 340 339 339 341 343 342 344 342 343 341 337 337 337 337 336 335 334
333 325 314 311 304 299 299 305 307 313 314 313 313 315 316 318 326 328 334 335 337 337 342 343 345 348 347 346 345 344 342 342 340 339 338 339 343 341 344 343 342 340 337 337 336 336 335 335 334
325 320 316 306 301 303 305 306 310 311 312 313 312 313 322 328 327 333 336 335 333 339 342 343 346 348 347 346 344 343 342 341 339 338 337 338 342 342 343 343 341 339 335 335 335 335 334 333 333
325 317 308 306 304 304 308 310 312 309 309 311 310 308 318 326 334 334 334 333 330 338 341 343 344 346 346 346 344 343 342 341 339 337 336 337 339 342 341 338 339 339 335 335 334 333 333 333 332
317 317 306 304 304 305 308 311 311 309 308 309 308 307 319 329 331 332 333 330 331 334 338 341 338 341 343 344 344 342 342 341 339 336 336 335 336 336 336 337 336 338 335 335 333 332 332 331 331
314 312 307 306 305 305 308 312 309 308 308 308 309 307 319 325 332 332 332 330 330 331 336 339 340 339 337 340 340 340 341 340 339 338 337 335 333 334 335 333 334 335 336 335 333 332 330 330 329
316 312 307 306 305 305 309 311 313 309 310 314 314 306 313 324 332 331 331 328 327 328 330 333 338 339 340 338 334 336 337 337 337 335 332 330 330 330 331 331 332 334 335 336 334 332 330 329 327
322 307 304 308 308 307 311 309 311 312 311 311 315 318 324 330 331 328 325 324 323 326 327 329 334 338 338 339 334 331 332 333 332 329 327 325 327 327 326 328 331 334 333 334 334 332 330 328 326
313 307 308 313 310 308 311 310 310 308 308 310 315 320 328 328 327 323 322 319 320 322 324 326 330 331 336 338 335 336 335 333 331 329 326 327 326 326 327 323 328 330 329 330 331 333 330 325 320
312 307 312 313 311 312 310 308 310 308 306 310 312 318 324 324 323 323 322 320 319 322 324 324 327 330 333 336 337 336 336 333 332 329 328 327 326 323 323 322 322 321 321 323 324 322 321 320 320
305 311 313 315 311 311 310 311 307 308 308 313 314 322 323 323 323 323 321 318 318 321 323 323 325 327 330 332 336 333 334 334 332 331 329 326 323 323 322 321 320 320 319 320 319 319 320 321 321
305 308 310 313 312 310 311 308 309 309 313 312 315 319 321 322 323 324 324 322 319 318 321 322 322 325 328 331 332 332 332 333 331 329 329 326 323 321 321 321 320 320 320 320 320 320 320 320 320
306 308 308 310 312 312 309 310 311 310 314 314 312 311 316 320 322 323 324 323 321 320 320 323 321 323 325 328 329 330 329 331 330 328 327 326 323 321 320 319 319 318 319 319 319 319 318 318 319
309 304 306 305 310 310 312 307 308 313 315 314 313 310 312 314 317 320 323 324 325 323 322 323 323 322 322 324 326 327 327 328 329 326 326 325 324 321 320 318 317 317 318 318 318 318 318 317 318
302 302 296 301 306 308 308 298 307 312 313 312 313 312 314 316 317 318 320 325 326 326 324 323 326 323 321 321 324 324 325 325 325 325 325 324 324 322 319 318 317 317 317 317 318 317 316 316 316
300 290 293 296 302 303 305 299 304 308 307 309 311 311 313 314 316 319 320 320 324 326 326 326 324 324 323 322 323 324 324 324 324 324 324 324 324 324 321 319 319 318 316 316 318 317 316 315 315
290 293 294 292 298 303 299 300 304 307 305 306 307 309 310 311 313 316 319 321 322 324 326 328 327 325 325 324 322 323 323 324 325 324 324 323 324 323 322 321 321 320 318 317 318 317 317 316 316
295 293 292 296 300 300 298 299 302 304 302 301 304 307 308 309 312 316 316 317 321 322 324 326 327 327 325 324 322 321 321 323 324 325 324 324 323 324 322 322 322 322 320 319 319 318 316 315 317
297 294 293 297 299 298 297 297 301 303 302 303 303 304 305 307 308 311 313 316 316 320 322 324 326 327 327 326 325 324 323 323 325 326 325 325 323 323 323 323 322 323 322 320 320 319 317 316 317
296 294 294 293 297 298 298 294 297 302 304 305 306 306 306 306 306 307 308 310 314 315 319 323 325 326 328 328 327 325 324 323 323 324 324 325 325 323 322 323 323 323 323 321 321 320 318 316 316
292 297 296 295 292 286 295 284 293 297 298 302 304 303 305 306 308 309 309 310 310 314 316 321 324 325 327 328 327 326 323 321 322 323 324 324 326 324 323 322 323 323 323 322 321 322 321 318 316
294 298 296 295 292 290 289 286 288 295 294 298 300 303 305 306 307 308 308 310 310 314 314 318 321 322 324 327 328 327 325 325 325 323 322 323 324 325 324 323 322 322 323 323 321 321 321 321 319
299 296 295 294 292 283 287 287 285 291 294 296 298 301 303 303 303 305 308 308 309 311 313 315 316 316 319 322 325 327 326 326 325 324 322 322 323 324 325 325 323 322 322 322 322 322 321 321 320
297 292 282 279 281 279 289 287 288 293 296 295 296 298 299 303 304 304 301 304 306 307 306 307 307 309 313 313 315 322 326 327 326 325 325 323 322 322 323 324 324 323 322 322 323 322 321 321 321
294 292 281 273 276 278 286 281 286 296 298 299 299 300 301 302 302 301 301 302 301 303 304 306 306 306 307 308 309 313 318 325 327 327 327 326 325 325 325 324 324 324 323 322 323 323 322 322 322
293 289 292 284 277 277 282 286 292 295 295 295 297 297 298 299 299 300 299 301 301 302 303 303 304 305 305 305 306 306 310 314 323 326 327 328 328 327 328 327 325 324 323 323 322 323 322 322 323
294 296 285 286 274 272 279 281 283 288 291 294 295 296 297 299 299 300 300 300 300 301 302 303 303 303 304 305 305 306 307 309 313 318 324 326 327 327 327 328 328 326 325 323 323 323 324 323 323
291 290 290 289 284 277 275 279 290 291 290 291 291 296 297 298 299 298 296 297 299 299 299 300 302 303 304 305 305 305 306 307 309 311 315 321 325 326 326 327 327 327 326 325 324 324 324 323 323
295 291 290 284 280 283 282 281 294 292 292 291 295 297 297 297 296 294 295 296 296 297 299 300 302 302 303 304 305 305 305 306 307 309 312 316 319 323 325 325 326 326 326 325 324 324 324 323 322
Wind_Speed
17 14 6 3 2 6 6 2 7 5 7 4 7 5 9 10 6 6 5 9 13 15 11 10 11 13 13 13 12 11 11 13 13 13 13 12 11 12 14 16 15 13 15 15 15 15 15 15 14
9 16 3 5 2 6 5 7 8 9 8 6 4 3 4 6 8 7 7 6 10 14 11 10 10 12 13 12 11 11 11 12 13 13 13 11 11 11 11 16 15 13 14 14 14 14 14 14 14
14 9 2 3 4 6 6 7 9 8 4 2 4 3 5 4 9 8 11 8 8 9 12 11 10 11 12 11 11 11 11 10 12 12 12 12 12 10 13 16 14 13 13 13 13 13 13 13 12
5 3 4 2 9 5 8 8 10 8 4 3 3 9 7 6 6 8 10 9 8 13 12 11 10 11 11 12 11 10 10 11 11 11 11 11 10 12 12 14 14 12 12 12 12 12 11 11 10
4 4 4 0 8 5 7 8 8 4 5 7 2 5 7 3 14 10 8 8 9 13 11 9 10 9 11 11 12 10 11 11 11 10 10 9 9 11 11 10 12 12 10 11 10 11 10 10 9
4 2 4 2 8 6 5 5 6 5 5 5 3 5 5 8 12 8 6 8 8 11 10 10 8 9 10 11 11 10 11 11 12 11 8 9 8 8 8 10 7 10 10 10 9 9 9 9 8
5 4 7 6 7 5 6 5 4 5 5 6 3 3 5 8 12 9 7 8 8 8 10 10 8 8 8 9 10 10 10 10 10 10 8 7 8 7 7 8 8 6 7 10 9 8 8 8 7
3 3 7 3 4 4 5 5 6 2 5 3 4 2 6 9 13 8 6 7 8 8 6 9 10 9 7 6 8 9 10 10 10 10 10 7 7 7 7 6 6 6 5 9 7 7 7 7 5
3 3 5 5 1 4 6 5 2 3 4 0 3 8 10 16 13 10 7 6 6 7 7 6 9 11 10 9 7 7 9 9 9 8 9 8 5 5 6 4 7 7 6 6 7 7 7 6 5
3 3 7 5 9 8 8 6 8 3 5 4 6 5 13 12 10 9 9 8 8 8 7 7 8 7 8 8 10 7 7 5 5 6 6 5 6 5 5 6 7 7 5 6 6 6 7 7 4
4 6 10 8 8 9 4 2 1 4 5 8 11 11 11 9 9 8 8 8 8 7 6 8 7 8 9 6 6 4 5 5 5 8 7 6 5 5 4 3 3 3 5 3 4 4 4 6 5
9 9 7 3 5 6 6 7 2 5 2 7 5 16 12 11 11 12 11 9 10 10 9 8 8 7 8 7 6 5 6 5 5 6 9 5 3 4 4 4 5 5 4 5 5 4 5 4 3
9 7 11 1 3 5 6 5 6 7 8 5 8 7 11 9 9 8 9 9 9 9 10 9 8 8 7 10 7 5 7 7 7 5 7 5 5 5 5 5 5 5 5 4 4 4 4 3 4
4 7 14 7 4 3 3 7 6 5 10 9 9 5 6 10 11 9 8 9 9 9 9 9 8 7 7 8 9 8 6 9 8 6 6 8 5 5 5 5 5 5 5 5 5 5 5 5 4
4 8 9 10 8 5 3 8 12 8 8 7 6 9 9 9 10 11 10 9 9 7 9 11 11 8 8 7 7 7 5 6 8 6 8 9 7 6 6 5 5 5 5 6 5 4 4 4 4
1 5 4 5 7 8 6 11 11 9 13 13 11 9 8 11 11 8 8 11 10 9 10 10 11 12 9 8 6 4 5 4 4 5 5 9 10 8 7 5 5 5 5 5 4 4 3 4 4
6 4 10 9 11 8 10 7 9 12 12 9 7 6 8 9 8 7 9 8 9 10 10 10 11 13 13 9 7 7 7 5 5 5 5 9 11 11 6 5 5 6 5 5 4 5 4 4 5
6 8 9 8 6 8 10 11 11 11 8 7 5 6 8 8 8 8 8 9 9 9 10 12 12 13 12 9 6 6 5 6 7 8 8 9 10 11 9 6 6 6 5 5 4 5 5 4 5
9 8 3 8 8 8 9 10 14 15 10 10 9 9 9 8 8 7 9 8 8 9 10 11 13 13 11 10 10 9 10 9 9 9 12 12 11 12 11 8 9 8 9 9 7 5 6 5 4
11 10 7 9 4 2 7 14 13 15 14 9 10 9 9 8 8 9 9 9 10 10 9 9 11 12 13 10 9 9 9 9 10 9 10 12 13 13 13 12 10 11 8 9 9 9 5 4 6
13 12 8 6 5 5 5 20 20 15 21 19 13 12 8 9 9 9 7 8 9 10 10 11 10 11 12 13 8 8 7 7 9 10 11 13 15 14 15 15 13 12 11 11 11 10 12 8 5
14 6 5 2 3 4 4 10 9 8 10 18 18 10 9 9 10 11 8 8 8 8 7 8 10 10 10 12 11 14 12 13 13 11 11 12 15 16 16 16 16 14 11 13 13 11 10 8 9
7 8 9 6 5 5 7 10 5 7 10 11 6 10 10 10 8 7 6 2 4 6 3 2 6 8 9 12 14 12 13 11 10 9 10 13 13 17 17 17 16 16 12 14 14 13 14 11 10
8 7 7 4 2 10 7 9 5 10 11 7 4 8 8 5 3 4 7 8 7 7 7 6 5 5 5 6 10 15 16 14 11 11 9 9 10 11 16 17 17 16 16 16 15 15 16 15 14
12 11 2 2 5 8 11 12 15 11 10 6 6 4 2 5 8 8 8 6 5 5 5 5 5 5 6 7 7 8 14 16 16 14 10 11 9 11 15 19 18 16 18 18 16 17 17 18 15
17 14 7 9 7 4 8 10 8 5 5 5 2 5 5 7 7 8 6 5 4 4 5 6 5 6 7 7 8 7 8 8 11 15 13 12 11 12 15 16 19 20 20 19 17 13 15 17 16
12 19 9 3 2 2 7 6 10 6 6 7 6 5 6 9 6 6 4 3 2 3 3 3 6 7 7 7 7 8 7 8 10 15 14 13 14 13 15 17 18 20 20 19 19 15 17 18 18
11 7 7 4 5 5 6 7 6 2 5 4 7 9 9 8 6 2 3 4 3 2 3 4 6 7 7 8 6 6 7 7 9 11 14 16 16 16 16 16 18 19 20 20 20 17 18 18 16
7 14 8 5 7 6 2 6 11 13 3 5 2 9 9 7 5 1 3 4 4 4 5 5 6 7 7 7 7 7 7 7 9 11 13 13 14 16 17 17 17 17 19 19 20 20 20 21 20
18 9 19 9 8 5 3 7 7 4 4 2 9 8 7 5 2 3 3 3 5 5 5 6 6 6 7 7 7 8 7 7 9 11 12 12 14 14 16 17 17 16 17 19 20 21 19 21 21
Wind_Direction
309 313 302 307 263 92 114 49 118 119 104 71 52 23 69 37 15 97 132 97 125 114 124 127 119 122 117 111 106 104 101 99 99 98 98 104 96 93 97 100 97 93 90 91 89 87 83 82 83
305 300 292 268 256 112 86 143 104 71 85 78 129 277 65 83 73 120 95 127 122 124 141 129 122 125 119 116 112 110 105 105 104 102 104 112 108 89 97 105 97 94 94 90 91 89 88 86 85
299 288 279 309 18 41 111 93 101 91 109 153 128 49 26 91 113 132 108 143 122 123 122 122 131 131 128 124 116 112 110 110 107 110 111 114 101 100 86 104 102 93 92 95 95 94 93 91 90
322 280 258 263 100 17 104 103 114 131 123 326 355 93 83 12 137 105 145 137 124 107 108 122 130 138 136 128 124 122 117 110 106 107 116 122 96 90 90 94 105 101 100 98 99 97 96 96 92
301 258 281 85 73 91 64 105 138 145 138 147 210 140 95 90 96 110 151 139 129 116 122 125 134 140 143 139 133 133 125 114 111 109 117 124 115 106 96 103 84 104 104 106 105 102 99 95 90
307 245 289 317 112 95 98 122 152 144 123 99 181 114 87 133 125 140 161 145 138 127 133 132 135 139 144 144 140 135 131 127 122 121 120 129 129 120 119 102 103 93 118 111 110 105 103 97 91
335 322 288 348 109 141 122 153 178 137 157 155 47 90 117 158 125 147 199 137 135 126 130 136 149 145 145 149 144 139 135 129 127 126 122 116 134 135 129 133 117 92 117 124 120 113 109 103 92
302 299 295 268 290 110 119 168 356 141 92 85 352 144 164 156 128 154 213 129 145 134 168 153 151 151 154 152 149 143 138 136 132 122 120 107 138 146 153 141 145 123 116 133 134 126 117 115 107
286 278 271 321 101 96 136 148 269 16 108 93 81 46 95 127 143 161 175 152 170 150 178 179 156 165 166 153 153 143 142 138 130 126 138 144 151 178 162 145 146 132 133 141 153 147 137 135 140
239 249 271 39 19 14 147 215 152 184 193 145 107 77 116 138 164 168 171 177 173 167 186 180 156 178 150 159 153 158 151 156 167 161 173 199 175 153 171 124 132 143 154 152 157 166 175 187 192
222 239 274 35 32 350 350 217 55 205 220 188 179 155 150 158 172 165 209 190 190 175 180 179 178 169 158 147 161 167 166 178 181 178 179 220 143 144 144 138 160 164 191 189 177 187 213 226 219
269 272 282 71 30 340 350 342 22 274 294 43 56 157 158 176 188 184 203 200 180 181 197 186 182 182 159 153 178 174 167 180 192 188 181 189 160 162 179 165 189 186 191 214 194 199 228 214 271
254 271 291 80 102 298 332 285 272 298 293 99 64 103 162 186 196 202 197 196 183 190 193 187 184 184 178 168 180 191 177 176 191 208 177 169 180 175 202 186 186 188 189 218 201 212 187 234 229
259 234 260 232 200 206 276 282 269 220 235 273 142 192 207 190 196 200 207 197 186 181 185 184 198 201 197 190 176 199 181 177 181 204 175 180 184 186 189 196 194 197 198 204 204 202 191 204 202
5 303 289 260 192 240 224 260 246 250 273 268 239 193 218 219 202 200 191 203 190 185 180 184 183 195 200 201 208 188 206 184 188 184 178 179 195 188 194 191 188 200 208 207 207 222 197 198 201
297 274 271 231 227 227 206 256 261 233 224 234 235 217 228 221 222 208 197 187 193 181 184 179 187 190 198 197 198 205 202 196 192 195 184 180 191 192 191 195 197 198 194 193 193 201 217 223 211
193 237 222 265 231 199 185 261 258 240 257 256 230 260 235 239 214 202 204 203 190 188 183 188 185 187 194 201 193 198 203 193 206 192 193 195 193 202 182 187 196 194 192 190 200 210 186 203 226
189 201 249 262 217 199 234 245 260 278 295 277 268 244 259 265 233 199 221 203 195 194 190 190 190 190 189 195 203 203 195 206 203 204 204 195 198 196 201 188 196 187 181 198 200 197 209 196 204
259 232 278 234 261 188 232 254 262 274 264 247 246 228 233 245 260 238 209 219 204 197 192 191 191 192 183 196 201 205 210 207 211 211 211 200 196 200 201 206 199 193 195 199 196 196 198 219 216
234 251 252 288 271 71 305 281 282 281 268 235 242 244 238 245 247 241 235 208 203 198 200 198 201 192 194 199 207 209 211 214 217 214 213 209 202 199 202 204 207 201 199 198 201 196 203 202 190
223 232 238 253 343 299 293 278 253 236 248 259 243 237 240 246 262 266 267 251 212 202 196 197 200 203 202 208 200 213 216 222 217 215 215 210 206 203 202 204 206 206 199 204 205 200 199 205 209
223 201 264 297 330 247 90 287 294 317 261 239 248 220 230 237 249 249 250 270 275 234 214 199 198 206 202 198 207 212 216 221 227 220 221 215 208 209 208 206 206 207 204 205 205 203 202 193 205
214 187 216 231 245 311 251 283 254 204 264 273 225 186 199 221 226 248 254 280 25 23 40 245 215 204 205 207 206 214 221 230 234 230 223 218 216 213 210 210 209 211 209 211 204 203 203 204 205
123 93 55 61 43 256 183 218 219 220 229 229 204 185 200 225 184 66 53 37 19 11 24 7 326 276 267 239 217 217 223 229 234 231 228 219 218 216 217 216 214 215 214 212 208 205 205 206 209
144 139 142 203 202 239 169 202 242 283 314 292 293 327 349 95 77 69 49 32 27 48 23 345 343 319 291 275 272 247 228 227 234 238 238 232 221 220 219 218 216 215 216 217 212 207 206 206 206
179 175 169 183 200 241 188 236 231 138 53 49 89 85 76 42 75 87 85 62 38 358 355 341 326 308 309 303 287 269 263 245 235 237 238 238 233 225 223 222 222 221 218 218 216 213 214 210 211
185 216 197 71 9 36 209 264 314 265 295 280 207 243 168 97 93 88 86 73 300 279 305 313 313 293 292 291 297 298 284 266 256 246 241 244 242 241 230 220 219 222 222 221 218 217 215 215 212
185 146 178 187 201 233 243 240 238 143 199 190 167 119 109 113 123 142 235 267 311 294 284 287 276 280 280 284 272 277 281 283 281 270 252 244 245 245 245 235 225 217 219 218 218 219 219 218 219
189 197 206 159 225 198 217 237 190 221 139 161 152 125 127 149 173 231 9 8 2 2 355 337 327 310 304 297 285 276 281 283 284 277 270 259 251 245 247 248 241 226 219 222 219 219 220 221 223
213 210 201 200 203 239 278 252 297 297 327 188 132 126 138 175 147 44 10 11 9 347 343 320 324 328 314 310 308 286 276 280 287 283 275 269 261 253 247 247 248 240 224 218 223 223 222 224 223